Location: Recife
(8.0585°S, 34.8848°W)
Time: 10:38:53
(UTC-03:00)

Transit 2A - Pass Details

Date: 17 April 2026
Orbit: 594 x 950 km, 66.7° (Epoch: 14 May)

Event Time Altitude Azimuth Distance (km) Brightness Sun altitude
Rises 07:57:57 0° 356° (N) 2,924 9.2 36.6°
Reaches altitude 10° 08:00:26 10° 5° (N) 1,981 8.6 37.2°
Maximum altitude 08:04:26 34° 71° (ENE) 997 10.0 38.1°
Drops below altitude 10° 08:08:20 10° 136° (SE) 1,929 8.5 39.0°
Sets 08:10:42 0° 145° (SE) 2,834 9.1 39.5°
